Temp
8 8 8 8 8 8 8 8 8 8 8 8 9 9 9 9 9 9 9 9 9 9 8 8 8 7 7 7 7 7 6 6 6 6 5 5 5 5 5 5 5 4 4 4 4
8 8 8 8 8 8 8 8 8 8 9 9 9 9 9 8 8 8 8 8 8 8 8 8 7 7 7 7 7 7 6 6 6 5 5 5 4 4 4 4 4 3 3 3 3
8 8 8 8 8 8 8 8 8 9 9 9 9 9 8 8 8 8 8 8 8 8 7 7 7 7 7 7 7 6 6 5 5 4 4 3 3 3 3 3 3 3 3 2 2
8 8 8 8 8 8 8 8 8 8 8 8 8 8 8 8 8 8 8 8 7 7 7 7 7 7 7 6 6 6 5 5 4 3 3 3 2 2 2 2 2 2 2 2 1
8 8 8 9 9 9 9 8 8 8 8 8 8 8 8 8 7 7 7 7 7 6 6 6 6 6 6 6 6 5 4 4 3 2 2 2 2 1 1 0 1 1 1 0 -0
8 8 8 8 8 9 9 9 9 8 8 8 8 8 7 7 7 7 7 7 7 6 6 6 6 6 6 5 5 5 4 4 3 2 2 1 1 -0 0 0 0 -0 -1 -1 -2
8 8 8 8 8 8 8 8 8 8 8 8 8 7 7 7 7 7 7 7 6 6 6 6 6 5 5 5 4 3 3 3 2 2 1 0 1 -0 -1 -1 -1 -1 -2 -2 -3
7 7 7 8 8 8 8 8 8 8 8 7 7 7 7 7 7 6 6 6 6 6 6 6 6 5 5 4 3 2 2 1 1 1 1 1 0 -2 -2 -1 -2 -3 -4 -4 -5
7 7 7 7 7 7 7 7 8 8 7 7 7 7 6 6 6 7 7 7 6 6 6 6 5 5 4 3 2 2 1 -1 -1 -1 -1 -1 -2 -3 -3 -4 -5 -6 -6 -7 -8
7 7 7 7 7 7 7 7 7 8 7 7 6 6 7 6 6 7 6 6 6 6 6 6 5 5 4 3 3 2 1 -0 -1 -2 -2 -3 -4 -5 -5 -6 -7 -8 -9 -10 -10
6 7 7 7 7 7 7 7 7 7 7 7 6 6 6 6 6 6 6 6 6 6 6 5 5 4 4 3 2 1 0 -0 -1 -2 -2 -3 -5 -6 -6 -7 -8 -9 -10 -11 -11
6 6 6 6 7 7 7 7 7 6 6 6 6 6 6 6 6 6 5 5 5 5 5 5 4 4 3 2 1 0 -1 -1 -2 -3 -4 -4 -6 -6 -7 -9 -10 -10 -11 -11 -11
5 6 6 6 6 7 7 7 6 6 6 5 5 6 5 5 5 5 5 5 5 5 5 4 3 3 2 0 -0 -1 -2 -3 -4 -4 -4 -4 -7 -7 -7 -8 -8 -9 -10 -11 -11
5 5 5 6 6 6 6 6 6 6 6 5 5 5 5 5 5 5 5 4 4 4 3 3 2 1 1 -0 -1 -2 -3 -5 -6 -7 -8 -8 -9 -9 -9 -9 -10 -10 -11 -12 -12
4 5 5 5 5 5 5 6 6 6 0 5 5 5 5 5 5 5 4 4 3 3 2 1 1 -1 -1 -2 -3 -4 -5 -6 -6 -8 -11 -10 -11 -10 -10 -11 -11 -12 -13 -13 -14
4 4 4 5 5 5 5 5 5 5 3 5 5 5 4 4 4 4 3 3 2 2 1 0 -0 -1 -2 -4 -5 -5 -5 -6 -9 -10 -14 -11 -11 -11 -11 -11 -12 -13 -14 -14 -15
3 4 4 4 4 4 4 4 4 4 6 5 5 5 5 4 4 4 3 2 1 1 -0 -1 -1 -3 -4 -5 -6 -6 -7 -8 -11 -15 -12 -11 -11 -10 -12 -13 -13 -14 -14 -15 -14
3 3 3 3 4 4 3 4 4 6 6 5 5 4 4 3 3 3 2 2 1 -0 -1 -2 -3 -4 -5 -6 -7 -8 -9 -9 -12 -14 -15 -11 -11 -11 -12 -14 -14 -14 -14 -14 -15
3 3 3 3 3 3 3 2 4 5 5 4 3 3 3 3 2 1 1 1 -0 -1 -1 -3 -5 -5 -6 -7 -8 -10 -11 -11 -12 -14 -15 -13 -13 -12 -14 -14 -14 -14 -15 -15 -16
3 3 3 3 3 3 2 2 3 4 3 3 2 2 2 2 1 1 0 -0 -1 -2 -3 -3 -5 -6 -7 -9 -10 -10 -11 -12 -13 -16 -15 -16 -14 -12 -14 -14 -14 -15 -15 -16 -17
2 3 3 2 2 2 2 2 3 3 2 2 1 1 1 0 0 -1 -0 -1 -2 -3 -4 -5 -6 -8 -8 -9 -10 -11 -12 -13 -13 -14 -20 -20 -16 -13 -14 -14 -15 -15 -16 -17 -17
1 1 1 1 1 2 2 2 3 2 2 1 1 1 0 -0 -2 -2 -1 -2 -3 -4 -5 -6 -7 -8 -9 -10 -12 -12 -13 -13 -13 -14 -15 -16 -16 -14 -15 -15 -16 -16 -17 -17 -18
-0 0 1 1 1 1 1 1 1 1 1 1 1 1 -0 -1 -2 -3 -3 -3 -3 -5 -6 -7 -9 -9 -10 -11 -12 -13 -12 -13 -14 -14 -15 -17 -16 -15 -15 -16 -16 -17 -17 -18 -18
-1 -1 -1 0 0 -0 0 0 1 1 0 0 0 0 -1 -1 -2 -2 -3 -4 -5 -6 -7 -8 -10 -9 -8 -8 -11 -13 -13 -14 -15 -15 -15 -16 -15 -15 -15 -16 -16 -17 -18 -18 -18
-1 -1 -1 -1 0 -0 -1 -1 -0 -0 -1 -1 -1 -0 -1 -2 -2 -3 -4 -4 -6 -7 -8 -9 -10 -10 -11 -11 -12 -12 -13 -14 -15 -15 -15 -15 -15 -15 -16 -16 -17 -18 -18 -18 -18
-1 -1 -1 -1 -1 -1 -1 -0 -1 -1 -2 -1 -1 -2 -2 -2 -3 -4 -5 -6 -7 -8 -9 -10 -11 -12 -13 -11 -13 -14 -13 -14 -14 -15 -15 -15 -15 -15 -16 -17 -18 -18 -19 -18 -18
-1 -0 -1 -1 -1 -1 -1 -1 -1 -1 -1 -2 -2 -3 -3 -4 -5 -5 -6 -7 -8 -9 -10 -12 -12 -13 -14 -14 -15 -14 -14 -13 -14 -14 -15 -15 -16 -16 -17 -17 -18 -18 -19 -19 -19
Height
3175 3172 3170 3168 3165 3163 3161 3158 3157 3155 3153 3152 3150 3149 3148 3146 3145 3144 3142 3142 3140 3139 3138 3137 3136 3136 3136 3136 3136 3136 3136 3135 3135 3135 3135 3136 3137 3137 3137 3137 3136 3136 3136 3136 3135
3175 3173 3170 3167 3165 3162 3159 3157 3156 3154 3152 3151 3149 3148 3146 3144 3143 3141 3142 3140 3139 3137 3137 3136 3135 3135 3135 3134 3134 3134 3134 3134 3134 3132 3133 3133 3134 3134 3134 3132 3131 3130 3129 3129 3128
3176 3173 3170 3167 3164 3162 3159 3157 3155 3153 3151 3149 3148 3146 3145 3143 3142 3141 3139 3138 3136 3135 3135 3135 3136 3135 3135 3133 3133 3132 3132 3132 3132 3132 3131 3131 3131 3131 3129 3127 3126 3125 3123 3123 3124
3176 3174 3170 3167 3164 3162 3159 3156 3153 3152 3149 3148 3146 3144 3143 3141 3143 3139 3138 3136 3135 3135 3136 3135 3135 3134 3134 3132 3132 3132 3130 3129 3130 3129 3129 3128 3127 3125 3124 3123 3121 3119 3116 3116 3117
3175 3173 3170 3167 3164 3161 3158 3155 3152 3150 3148 3146 3144 3142 3141 3140 3139 3137 3136 3135 3135 3135 3135 3134 3133 3132 3131 3129 3129 3128 3128 3127 3125 3125 3124 3124 3121 3121 3119 3116 3114 3112 3112 3113 3111
3174 3171 3168 3165 3163 3160 3156 3154 3151 3148 3146 3144 3143 3141 3139 3139 3137 3136 3136 3136 3135 3134 3133 3132 3130 3129 3128 3127 3126 3124 3123 3123 3122 3122 3121 3120 3118 3116 3113 3112 3107 3107 3107 3107 3105
3172 3169 3167 3164 3162 3158 3155 3152 3150 3147 3145 3142 3141 3139 3137 3137 3135 3136 3135 3134 3133 3132 3130 3129 3128 3127 3125 3123 3122 3121 3121 3120 3118 3117 3116 3116 3115 3112 3108 3105 3102 3101 3101 3099 3096
3170 3167 3165 3163 3161 3158 3155 3152 3149 3147 3144 3142 3139 3137 3136 3136 3135 3135 3133 3132 3131 3130 3129 3127 3125 3124 3122 3120 3118 3118 3117 3117 3116 3114 3113 3111 3108 3107 3101 3098 3096 3096 3096 3093 3090
3169 3166 3164 3162 3159 3157 3154 3151 3148 3146 3143 3140 3138 3136 3136 3135 3135 3133 3131 3130 3128 3127 3125 3124 3123 3121 3119 3118 3117 3115 3113 3112 3112 3109 3108 3107 3102 3102 3096 3094 3093 3092 3090 3087 3086
3170 3167 3164 3160 3157 3155 3153 3149 3146 3143 3141 3138 3136 3138 3138 3135 3133 3130 3128 3127 3126 3124 3123 3121 3119 3117 3116 3116 3115 3112 3111 3108 3107 3104 3103 3100 3095 3094 3088 3085 3085 3086 3084 3083 3080
3169 3167 3164 3161 3157 3154 3151 3148 3147 3143 3138 3135 3134 3133 3133 3132 3130 3127 3125 3124 3122 3121 3119 3117 3116 3113 3113 3113 3111 3108 3107 3106 3103 3100 3098 3095 3091 3086 3081 3078 3078 3079 3078 3076 3076
3167 3165 3162 3160 3156 3152 3149 3146 3143 3141 3135 3132 3130 3131 3130 3128 3127 3125 3124 3122 3119 3117 3115 3114 3111 3111 3110 3108 3106 3105 3103 3101 3100 3096 3094 3091 3087 3080 3073 3071 3072 3072 3072 3071 3069
3165 3162 3159 3157 3154 3152 3148 3145 3140 3137 3134 3130 3129 3128 3128 3127 3124 3123 3121 3119 3116 3113 3111 3109 3108 3107 3105 3103 3101 3099 3099 3097 3096 3090 3089 3084 3075 3071 3069 3069 3068 3068 3068 3067 3065
3162 3159 3157 3154 3154 3149 3146 3142 3138 3134 3130 3130 3128 3127 3126 3123 3121 3119 3116 3117 3113 3110 3107 3106 3104 3102 3099 3099 3098 3096 3094 3091 3088 3086 3084 3080 3075 3065 3064 3065 3067 3066 3064 3063 3060
3160 3158 3155 3151 3149 3147 3145 3140 3136 3133 3130 3128 3125 3123 3122 3122 3119 3115 3113 3110 3109 3107 3108 3105 3101 3098 3096 3096 3094 3095 3092 3087 3083 3081 3078 3075 3078 3059 3059 3060 3063 3063 3061 3059 3056
3159 3155 3153 3150 3147 3144 3140 3138 3136 3135 3124 3122 3121 3120 3119 3116 3114 3112 3111 3109 3106 3103 3100 3099 3098 3097 3094 3091 3091 3089 3090 3082 3078 3077 3076 3069 3072 3057 3056 3057 3059 3059 3058 3056 3052
3157 3154 3151 3148 3145 3141 3139 3137 3136 3128 3126 3122 3119 3117 3115 3113 3110 3109 3108 3105 3103 3100 3098 3096 3094 3094 3094 3092 3090 3088 3086 3083 3082 3079 3071 3068 3067 3054 3054 3054 3055 3055 3053 3050 3046
3154 3150 3149 3146 3142 3139 3136 3136 3132 3124 3121 3119 3117 3115 3112 3110 3107 3105 3104 3102 3099 3097 3095 3093 3091 3092 3090 3090 3089 3084 3086 3087 3091 3081 3070 3067 3057 3052 3051 3052 3050 3049 3047 3043 3040
3150 3149 3146 3143 3140 3138 3136 3133 3128 3123 3119 3116 3114 3109 3107 3107 3106 3102 3098 3096 3095 3095 3096 3092 3087 3086 3085 3083 3085 3081 3081 3084 3083 3078 3074 3058 3054 3051 3047 3047 3047 3045 3042 3037 3032
3146 3144 3143 3141 3138 3135 3133 3130 3124 3123 3120 3117 3111 3108 3105 3103 3103 3099 3095 3093 3091 3090 3088 3085 3084 3080 3079 3079 3077 3079 3079 3080 3082 3082 3073 3055 3050 3045 3044 3043 3042 3039 3035 3030 3025
3140 3138 3138 3136 3134 3131 3126 3124 3121 3119 3117 3114 3112 3108 3104 3101 3098 3096 3092 3088 3086 3087 3086 3085 3082 3079 3076 3073 3072 3074 3073 3074 3077 3076 3076 3067 3045 3042 3041 3040 3038 3035 3029 3023 3018
3135 3133 3133 3130 3129 3124 3122 3118 3115 3113 3112 3109 3106 3104 3101 3099 3096 3094 3090 3088 3085 3083 3082 3079 3077 3074 3072 3068 3068 3068 3068 3070 3071 3069 3067 3062 3041 3038 3037 3037 3033 3029 3024 3017 3011
3129 3127 3127 3125 3122 3120 3117 3114 3110 3106 3105 3101 3100 3096 3095 3095 3094 3087 3084 3082 3081 3081 3077 3076 3072 3070 3065 3067 3064 3060 3061 3064 3064 3063 3057 3060 3038 3034 3033 3032 3026 3022 3017 3011 3005
3124 3122 3120 3118 3117 3114 3112 3107 3105 3101 3099 3096 3093 3091 3088 3086 3086 3081 3078 3077 3075 3075 3073 3071 3067 3067 3065 3061 3061 3058 3056 3059 3057 3053 3046 3040 3031 3033 3031 3027 3022 3017 3011 3005 3000
3117 3112 3112 3110 3107 3106 3105 3101 3100 3097 3092 3090 3084 3084 3082 3079 3077 3076 3074 3073 3071 3069 3066 3066 3060 3059 3056 3054 3052 3049 3047 3049 3046 3042 3040 3029 3030 3028 3025 3020 3015 3010 3002 2996 2992
3107 3105 3102 3100 3098 3095 3093 3092 3091 3090 3088 3084 3080 3077 3074 3072 3072 3070 3069 3067 3066 3063 3061 3059 3056 3051 3044 3045 3043 3037 3036 3036 3035 3034 3029 3027 3022 3022 3019 3014 3008 3004 2996 2990 2985
3097 3096 3096 3090 3087 3085 3083 3083 3080 3080 3079 3077 3074 3070 3068 3067 3066 3063 3062 3060 3060 3059 3057 3054 3051 3049 3039 3039 3036 3027 3025 3026 3026 3026 3025 3022 3020 3018 3014 3008 3004 2996 2989 2984 2978
Wind_Speed
12 13 13 13 12 12 11 10 10 10 10 10 10 9 10 9 8 8 5 9 9 6 6 6 4 3 5 6 6 7 8 12 14 15 17 16 17 17 18 20 21 22 25 26 27
12 13 13 14 13 12 11 10 10 10 10 10 9 9 9 10 10 5 8 6 4 4 3 4 4 2 3 3 5 7 9 9 12 14 14 16 16 17 19 23 25 24 24 25 26
14 14 15 14 13 13 13 13 12 11 10 10 10 10 9 9 9 8 6 4 5 3 5 6 3 3 3 4 4 5 8 9 10 12 14 17 19 21 25 27 26 27 29 29 29
16 16 15 15 14 14 14 14 13 12 11 11 10 10 10 9 8 6 4 4 7 8 5 5 6 8 7 7 6 6 10 10 10 13 16 19 21 22 24 26 29 30 33 33 31
16 16 16 16 15 14 15 14 13 12 11 10 8 9 9 7 5 5 2 8 5 4 6 8 9 11 10 11 10 10 9 12 15 15 17 19 21 23 24 26 28 31 32 32 33
17 16 15 14 14 13 13 12 11 10 11 9 9 7 6 5 4 2 5 3 3 7 9 10 11 11 11 9 10 11 12 14 17 17 19 19 20 20 23 26 30 32 31 30 31
16 16 15 14 14 13 12 11 11 12 8 10 9 4 4 2 5 4 2 4 8 10 12 10 10 10 11 12 9 10 12 14 17 17 16 16 19 18 22 28 30 32 32 34 36
13 14 14 13 13 14 13 12 12 13 9 11 9 5 1 5 3 2 7 7 8 10 11 12 11 11 9 11 12 11 11 9 10 14 18 19 22 19 25 32 35 35 36 37 37
12 12 12 12 13 14 15 16 16 17 12 11 5 2 6 3 5 9 7 7 9 11 12 11 11 10 10 8 8 9 9 12 13 15 17 20 22 23 33 38 36 33 31 31 33
15 13 12 12 13 14 17 18 18 16 14 12 3 5 4 0 8 10 4 6 11 10 11 11 12 12 6 5 6 10 13 15 17 18 21 24 29 29 33 32 33 31 30 31 29
16 16 15 15 16 16 16 17 17 14 16 12 5 7 2 4 10 9 8 9 10 10 11 12 12 5 5 10 15 14 13 16 18 24 26 23 22 30 35 36 34 31 30 27 29
15 15 16 17 17 17 16 15 15 14 14 9 7 9 5 8 14 6 9 12 11 10 11 14 6 5 10 13 11 12 15 18 19 17 21 24 27 36 39 35 30 28 27 28 29
14 15 15 16 19 19 17 17 17 17 15 8 10 8 6 12 17 6 11 14 13 12 13 8 5 8 14 10 10 13 17 16 20 25 27 30 24 23 27 27 27 27 27 27 26
16 16 17 17 17 19 18 18 18 18 9 6 9 7 7 14 10 18 14 14 14 14 14 5 7 14 12 10 13 14 13 18 22 23 7 10 9 15 19 21 20 19 22 22 24
18 18 17 18 18 18 19 18 17 15 4 5 9 8 10 14 17 16 15 15 17 16 12 9 13 14 10 12 12 11 17 22 26 21 18 10 10 10 13 16 14 15 17 22 26
19 18 18 17 17 17 18 18 18 7 6 4 8 10 15 18 18 14 15 17 17 15 11 10 17 9 12 13 14 18 17 19 11 5 3 5 11 7 11 7 10 13 18 22 27
20 20 18 18 16 15 16 15 10 6 5 6 9 17 21 22 17 13 15 18 15 10 7 17 8 12 10 12 17 14 14 5 3 2 4 9 8 18 12 12 10 13 19 28 35
23 19 20 21 18 17 15 15 8 9 12 17 17 22 24 20 13 12 21 19 18 9 14 7 8 8 8 15 11 13 6 1 5 3 4 11 9 6 7 10 12 18 28 37 39
24 21 21 20 19 19 17 13 9 11 11 14 23 20 14 11 14 18 17 19 7 8 6 7 5 15 16 14 11 6 2 6 6 8 4 6 9 12 11 11 18 27 34 39 44
25 23 21 22 19 20 21 19 20 19 18 23 19 12 14 17 18 14 10 11 12 11 10 9 11 13 11 13 11 7 8 2 3 3 6 7 9 14 10 18 28 29 40 45 44
27 26 24 23 24 25 24 23 23 19 21 17 18 19 22 22 18 15 11 17 17 12 15 17 9 8 14 9 9 10 7 4 6 7 4 4 7 7 18 31 23 38 44 44 45
32 30 26 26 29 25 25 23 21 23 24 23 24 21 22 19 19 15 16 13 15 18 19 14 10 11 11 16 13 13 13 12 7 5 10 6 13 18 13 23 39 41 43 44 47
34 35 33 27 25 26 29 29 25 28 26 21 18 24 24 22 14 11 17 18 18 18 10 14 8 10 7 8 14 16 17 16 18 20 20 6 9 12 28 41 41 40 43 42 42
29 30 34 38 33 31 28 24 28 22 22 24 25 24 23 23 22 18 20 18 19 20 20 20 17 18 15 17 16 14 17 23 22 20 25 33 42 39 36 36 38 38 40 42 39
39 44 37 30 36 39 36 38 33 31 29 25 27 24 22 23 22 24 25 23 22 21 23 15 20 22 24 25 26 28 28 29 31 34 34 43 39 35 34 34 35 33 44 40 36
36 37 39 38 37 37 37 41 35 30 30 30 27 24 25 24 23 27 24 23 21 21 18 21 19 21 32 24 23 28 26 28 30 32 36 36 37 30 29 33 29 40 39 34 33
37 46 47 40 41 38 42 37 35 29 31 29 26 26 26 22 23 24 26 25 24 25 22 22 18 13 9 9 18 24 18 14 15 19 23 24 24 27 25 30 36 39 35 31 31
Wind_Direction
14 11 8 1 358 354 351 346 347 345 341 339 339 336 332 327 326 322 333 321 323 330 324 306 309 310 267 254 242 232 216 211 213 223 232 235 239 250 259 265 270 269 272 273 271
7 5 1 2 6 5 358 351 347 342 341 340 339 337 333 330 331 331 333 339 350 358 2 358 357 326 289 254 243 233 231 233 233 236 248 253 255 264 271 274 279 277 273 271 271
360 359 358 0 1 1 359 358 354 349 344 342 340 337 337 334 330 327 343 344 342 29 73 68 29 349 312 276 241 250 253 244 245 257 263 265 269 276 278 280 280 279 279 278 278
355 353 352 354 356 355 350 345 343 341 337 336 339 336 336 336 341 331 340 342 98 91 49 16 335 317 309 291 286 274 276 276 257 263 273 279 280 275 271 276 278 279 280 280 279
349 347 348 347 351 353 351 350 349 346 344 343 341 335 331 340 352 330 19 124 94 38 353 325 319 316 311 303 296 287 271 267 271 271 272 273 274 278 279 276 276 278 281 286 290
344 344 347 348 350 353 354 352 350 349 345 351 343 342 337 337 328 77 118 109 359 328 320 316 313 310 302 293 284 282 274 269 271 276 279 282 282 284 282 283 285 288 290 293 293
345 347 349 350 348 350 354 352 347 342 337 344 338 330 337 12 112 104 65 324 315 313 315 318 311 305 300 292 278 266 271 274 279 283 283 289 287 287 287 286 288 292 299 301 300
348 348 347 348 352 353 352 347 342 339 328 337 334 325 98 117 106 49 332 315 320 321 328 323 317 306 295 285 285 283 286 271 277 279 282 290 290 289 289 289 292 297 300 299 300
347 346 349 355 357 351 344 339 339 336 323 328 320 253 162 100 14 344 339 337 334 329 327 320 314 304 298 280 277 272 280 282 285 281 281 285 283 286 283 288 290 292 293 296 301
349 350 349 353 353 348 340 336 336 330 325 327 309 169 164 95 348 343 338 334 331 329 322 319 312 301 284 289 272 278 281 283 282 287 287 288 286 287 288 290 292 294 297 301 307
350 347 347 347 350 349 347 343 338 330 327 320 278 180 186 305 332 332 329 330 332 325 318 318 310 270 293 302 299 291 288 288 291 291 296 294 289 291 290 290 290 293 294 301 309
345 341 339 338 339 344 344 337 332 321 314 295 214 198 272 310 326 312 322 330 322 316 319 316 277 267 306 307 294 293 294 294 296 291 297 289 288 282 282 280 283 286 292 298 305
335 331 331 334 334 333 334 330 328 326 315 270 203 221 283 320 323 292 314 322 320 318 321 301 268 294 310 293 290 298 301 302 299 298 295 294 288 271 265 268 276 281 287 293 296
328 328 328 328 328 326 329 328 328 329 299 236 211 245 288 322 315 313 313 323 321 319 322 286 287 310 302 295 302 308 307 305 304 303 291 293 285 271 265 263 270 279 283 289 295
325 323 323 322 325 327 327 327 326 324 335 227 241 277 302 318 313 303 307 313 321 318 311 292 307 313 302 302 308 308 313 306 297 287 281 283 238 274 263 260 270 279 283 290 297
328 325 323 322 322 323 324 324 321 303 258 242 275 290 305 312 309 296 304 318 320 314 291 280 308 293 299 300 313 313 317 309 302 269 253 208 220 267 260 268 258 268 281 295 309
320 320 323 323 319 319 318 319 307 232 283 268 283 301 306 308 301 295 306 314 312 306 286 307 283 296 294 309 317 321 339 324 322 303 248 203 249 258 271 254 259 281 300 312 318
318 310 315 316 314 314 311 307 263 272 269 286 297 301 300 301 297 296 309 308 310 293 315 316 311 289 286 303 302 319 360 217 259 272 286 243 247 262 246 246 278 299 309 314 318
310 313 319 313 309 310 303 293 277 281 280 290 300 298 290 290 301 309 313 299 271 288 301 306 263 289 286 291 306 301 322 289 258 280 316 243 259 256 241 262 294 305 310 316 320
304 306 311 318 314 308 301 290 280 285 290 297 291 278 278 296 304 305 302 289 282 281 284 291 288 283 276 287 287 252 287 269 253 310 275 282 269 239 249 295 307 308 316 319 320
298 299 303 303 302 301 291 289 288 284 299 294 290 283 286 293 291 285 268 286 280 282 288 303 275 272 283 272 263 257 244 220 222 227 204 292 247 232 288 299 298 312 318 316 318
298 300 296 296 297 291 289 291 283 287 300 291 290 288 287 293 294 282 270 274 280 291 297 294 285 272 275 278 267 253 256 239 206 221 229 262 281 285 288 301 312 315 315 316 316
305 297 293 297 289 292 289 289 278 289 293 286 283 292 292 287 287 274 280 285 283 287 283 298 277 298 282 268 249 243 254 249 251 259 246 231 260 290 305 309 310 312 314 314 315
299 301 298 296 293 287 284 282 288 293 290 287 286 288 287 283 279 272 276 282 284 285 283 292 267 251 252 282 284 257 260 267 257 248 256 244 272 288 303 303 306 309 312 314 316
297 288 292 273 279 281 282 285 281 293 286 286 283 287 284 278 282 274 276 279 280 281 282 279 278 281 277 273 271 271 270 267 260 264 259 280 281 295 297 305 306 312 316 317 314
280 284 286 275 284 279 278 279 281 290 287 286 285 286 280 276 276 280 281 279 280 277 275 278 278 289 290 292 270 269 267 259 260 263 270 278 282 291 299 305 304 316 314 314 316
277 282 288 271 271 280 276 277 272 280 284 280 287 280 278 280 276 275 275 276 274 276 275 271 275 287 281 295 296 281 266 245 265 264 273 278 289 297 310 311 311 315 317 317 319